Location: Barruelo
(41.2448°N, 3.8231°W)
Time: 02:36:42
(UTC+00:00)

SOZ - Pass Details

Date: 15 March 2026
Orbit: 298 x 12048 km, 52.0° (Epoch: 12 April)

Event Time Altitude Azimuth Distance (km) Brightness Sun altitude
Rises 04:44:50 0° 229° (SW) 15,431 11.6 -19.9°
Reaches altitude 10° 05:02:29 10° 233° (SW) 12,365 11.1 -16.7°
Maximum altitude 05:40:35 80° 324° (NW) 2,465 8.0 -9.6°
Drops below altitude 10° 05:48:22 10° 53° (NE) 3,118 9.6 -8.1°
Sets 05:49:59 0° 55° (NE) 3,668 10.1 -7.8°
